Hourly Data Report for October 15, 2014

All times are specified in Local Standard Time (LST). Add 1 hour to adjust for Daylight Saving Time where and when it is observed.

HALL BEACH A
NUNAVUT

68°46'33.000" N
81°14'33.000" W
9.10 m
2402354
71293
YUX

Download Data

Hourly Data (October 2014)
Hourly Data Report for October 15, 2014
Temp Definition
°C
Dew Point Temp Definition
°C
Rel Hum Definition
%
Wind Dir Definition
10's deg

Wind Spd Definition
km/h
Visibility Definition
km
Stn Press Definition
kPa
Hmdx Definition


Wind Chill Definition


Weather Definition


TIME
00:00 Legend Double Dagger -3.3 -4.7 90 6 15 16.1 100.68   -8 LegendNANA
01:00 Legend Double Dagger -3.2 -5.1 87 8 22 16.1 100.68   -10 LegendNANA
02:00 Legend Double Dagger -3.2 -4.8 89 5 21 16.1 100.68   -9 LegendNANA
03:00 Legend Double Dagger -3.0 -4.1 92 5 21 9.7 100.70   -9 Fog
04:00 Legend Double Dagger -2.8 -3.2 97 4 21 4.8 100.69   -9 Snow
05:00 Legend Double Dagger -2.7 -3.4 95 4 22 11.3 100.69   -9 Snow
06:00 Legend Double Dagger -2.2 -2.8 96 3 18 4.8 100.70   -8 Snow
07:00 Legend Double Dagger -2.1 -2.4 98 4 18 3.6 100.69   -8 Snow
08:00 Legend Double Dagger -1.7 -2.3 96 3 22 16.1 100.68   -8 Snow
09:00 Legend Double Dagger -2.3 -2.9 96 2 21 12.9 100.69   -8 Snow
10:00 Legend Double Dagger -2.7 -3.6 93 1 22 16.1 100.68   -9 Snow
11:00 Legend Double Dagger -2.9 -4.3 90 1 24 16.1 100.67   -10 LegendNANA
12:00 Legend Double Dagger -4.6 -5.3 95 35 24 16.1 100.67   -12 LegendNANA
13:00 Legend Double Dagger -4.5 -5.4 93 34 22 16.1 100.70   -11 LegendNANA
14:00 Legend Double Dagger -4.2 -5.2 93 34 24 16.1 100.69   -11 LegendNANA
15:00 Legend Double Dagger -4.3 -5.1 94 34 24 16.1 100.67   -11 LegendNANA
16:00 Legend Double Dagger -4.0 -4.8 94 34 26 16.1 100.70   -11 LegendNANA
17:00 Legend Double Dagger -3.1 -3.9 94 35 30 16.1 100.70   -11 LegendNANA
18:00 Legend Double Dagger -2.4 -3.7 91 1 30 16.1 100.71   -10 Snow
19:00 Legend Double Dagger -2.3 -3.1 94 36 28 9.7 100.72   -9 Snow
20:00 Legend Double Dagger -2.8 -3.5 95 36 30 16.1 100.71   -10 Snow
21:00 Legend Double Dagger -3.0 -4.4 90 35 34 16.1 100.71   -11 Snow
22:00 Legend Double Dagger -4.2 -5.2 93 34 32 16.1 100.73   -12 Snow
23:00 Legend Double Dagger -4.1 -5.1 93 34 34 16.1 100.73   -12 LegendNANA

Notes on Data Quality.

Legend

  • E = Estimated
  • M = Missing
  • NA = Not Available
  • ‡ = Partner data that is not subject to review by the National Climate Archives
Date modified: